Clinton, OK

6:34 AM CST on December 17, 2017 (GMT -0600)
Clinton Municipal

Weather History for KCLK - March, 2014

Change the Weather History Date:

Sunday, March 9, 2014

  Actual Average (KCSM) Record (KCSM)
Temperature  
Mean Temperature 42 °F -  
Max Temperature 62 °F 56 °F 82 °F (2017)
Min Temperature 23 °F 33 °F 19 °F (1998)
Degree Days  
Heating Degree Days 22    
Moisture  
Dew Point 20 °F    
Average Humidity 48    
Maximum Humidity 86    
Minimum Humidity 19    
Precipitation  
Precipitation 0.00 in - - ()
Sea Level Pressure  
Sea Level Pressure 30.25 in    
Wind  
Wind Speed 4 mph (SSW)    
Max Wind Speed 12 mph    
Max Gust Speed -    
Visibility 10 miles    
Events      
Averages and records for this station are not official NWS values.
T = Trace of Precipitation, MM = Missing Value Source: NWS Daily Summary

Daily Weather History Graph

Daily Weather History Graph

Search for Another Location

Airport or City:

Trip Planner

Search our weather history database for the weather conditions in past years. The results will help you decide how hot, cold, wet, or windy it might be!

Date:

Astronomy

Mar. 09, 2014 Rise Set
Actual Time 7:54 AM CDT 7:38 PM CDT
Civil Twilight 7:29 AM CDT 8:03 PM CDT
Nautical Twilight 6:59 AM CDT 8:33 PM CDT
Astronomical Twilight 6:30 AM CDT 9:02 PM CDT
Moon 1:40 PM CDT (3/9) 3:12 AM CDT (3/9)
Length of Visible Light 12h 34m
Length of Day
11h 43m
First Quarter, 61% of the Moon is Illuminated
Mar 9
First Quarter
Mar 16
Full
Mar 23
Last Quarter
Mar 30
New
Apr 7
First Quarter

Hourly Weather History & Observations

Time (CDT) Temp. Windchill Dew Point Humidity Pressure Visibility Wind Dir Wind Speed Gust Speed Precip Events Conditions
12:15 AM 33.8 °F - 21.2 °F 60% 30.36 in 10.0 mi Calm Calm - N/A   Scattered Clouds
12:35 AM 33.8 °F 30.8 °F 21.2 °F 60% 30.36 in 10.0 mi North 3.5 mph - N/A   Clear
12:55 AM 33.8 °F - 21.2 °F 60% 30.36 in 10.0 mi Calm Calm - N/A   Clear
1:15 AM 32.0 °F - 21.2 °F 64% 30.35 in 10.0 mi Calm Calm - N/A   Scattered Clouds
1:35 AM 32.0 °F - 21.2 °F 64% 30.35 in 10.0 mi Calm Calm - N/A   Clear
1:55 AM 32.0 °F 27.5 °F 21.2 °F 64% 30.35 in 10.0 mi North 4.6 mph - N/A   Clear
3:15 AM 30.2 °F 25.4 °F 21.2 °F 69% 30.34 in 10.0 mi NNE 4.6 mph - N/A   Clear
3:35 AM 30.2 °F 25.4 °F 21.2 °F 69% 30.34 in 10.0 mi North 4.6 mph - N/A   Clear
3:55 AM 28.4 °F 23.3 °F 21.2 °F 74% 30.34 in 10.0 mi North 4.6 mph - N/A   Clear
4:15 AM 26.6 °F 19.1 °F 21.2 °F 80% 30.34 in 10.0 mi NNW 6.9 mph - N/A   Clear
4:35 AM 26.6 °F 19.1 °F 19.4 °F 74% 30.33 in 10.0 mi North 6.9 mph - N/A   Clear
4:55 AM 26.6 °F - 19.4 °F 74% 30.34 in 10.0 mi Calm Calm - N/A   Clear
5:15 AM 26.6 °F 21.2 °F 19.4 °F 74% 30.33 in 10.0 mi North 4.6 mph - N/A   Clear
5:35 AM 26.6 °F - 19.4 °F 74% 30.33 in 10.0 mi Calm Calm - N/A   Clear
5:55 AM 26.6 °F - 19.4 °F 74% 30.33 in 10.0 mi Calm Calm - N/A   Clear
6:15 AM 26.6 °F - 19.4 °F 74% 30.33 in 10.0 mi Calm Calm - N/A   Clear
6:35 AM 24.8 °F - 19.4 °F 80% 30.34 in 10.0 mi Calm Calm - N/A   Clear
6:55 AM 23.0 °F 18.4 °F 17.6 °F 80% 30.33 in 10.0 mi West 3.5 mph - N/A   Clear
7:15 AM 23.0 °F 15.8 °F 19.4 °F 86% 30.34 in 10.0 mi SW 5.8 mph - N/A   Clear
7:35 AM 26.6 °F 22.6 °F 19.4 °F 74% 30.34 in 10.0 mi SW 3.5 mph - N/A   Clear
7:55 AM 26.6 °F 21.2 °F 19.4 °F 74% 30.34 in 10.0 mi West 4.6 mph - N/A   Clear
8:20 AM 26.6 °F 21.2 °F 19.4 °F 74% 30.34 in 10.0 mi NW 4.6 mph - N/A   Clear
8:35 AM 24.8 °F - 19.4 °F 80% 30.35 in 10.0 mi Calm Calm - N/A   Clear
8:55 AM 26.6 °F - 21.2 °F 80% 30.34 in 10.0 mi Calm Calm - N/A   Clear
9:15 AM 28.4 °F 24.6 °F 21.2 °F 74% 30.34 in 10.0 mi WNW 3.5 mph - N/A   Clear
9:35 AM 30.2 °F - 23.0 °F 75% 30.35 in 10.0 mi Calm Calm - N/A   Clear
9:55 AM 32.0 °F 28.7 °F 23.0 °F 69% 30.36 in 10.0 mi WNW 3.5 mph - N/A   Clear
10:15 AM 33.8 °F - 24.8 °F 70% 30.36 in 10.0 mi Calm Calm - N/A   Clear
10:35 AM 35.6 °F 32.8 °F 24.8 °F 65% 30.36 in 10.0 mi South 3.5 mph - N/A   Clear
10:55 AM 39.2 °F 35.9 °F 23.0 °F 52% 30.36 in 10.0 mi WNW 4.6 mph - N/A   Clear
11:15 AM 41.0 °F 39.0 °F 21.2 °F 45% 30.36 in 10.0 mi WSW 3.5 mph - N/A   Clear
11:35 AM 44.6 °F 42.2 °F 23.0 °F 43% 30.35 in 10.0 mi SSW 4.6 mph - N/A   Clear
11:55 AM 44.6 °F 40.7 °F 21.2 °F 39% 30.34 in 10.0 mi SSW 6.9 mph - N/A   Clear
12:15 PM 46.4 °F 45.2 °F 19.4 °F 34% 30.34 in 10.0 mi WSW 3.5 mph - N/A   Clear
12:35 PM 50.0 °F - 17.6 °F 28% 30.32 in 10.0 mi SSW 6.9 mph - N/A   Clear
1:00 PM 51.8 °F - 17.6 °F 26% 30.31 in 10.0 mi South 5.8 mph - N/A   Clear
1:15 PM 51.8 °F - 15.8 °F 24% 30.31 in 10.0 mi South 3.5 mph - N/A   Clear
1:35 PM 53.6 °F - 17.6 °F 24% 30.29 in 10.0 mi South 4.6 mph - N/A   Clear
1:55 PM 55.4 °F - 17.6 °F 23% 30.27 in 10.0 mi South 5.8 mph - N/A   Clear
2:15 PM 55.4 °F - 19.4 °F 25% 30.25 in 10.0 mi SSW 8.1 mph - N/A   Clear
2:35 PM 57.2 °F - 19.4 °F 23% 30.24 in 10.0 mi South 6.9 mph - N/A   Clear
2:55 PM 57.2 °F - 19.4 °F 23% 30.23 in 10.0 mi SSW 8.1 mph - N/A   Clear
3:15 PM 59.0 °F - 19.4 °F 22% 30.22 in 10.0 mi South 4.6 mph - N/A   Clear
3:35 PM 59.0 °F - 17.6 °F 20% 30.20 in 10.0 mi SSW 9.2 mph - N/A   Clear
3:55 PM 59.0 °F - 19.4 °F 22% 30.19 in 10.0 mi South 9.2 mph - N/A   Clear
4:15 PM 60.8 °F - 19.4 °F 20% 30.18 in 10.0 mi SSW 9.2 mph - N/A   Clear
4:35 PM 60.8 °F - 19.4 °F 20% 30.17 in 10.0 mi SW 8.1 mph - N/A   Clear
4:55 PM 60.8 °F - 17.6 °F 19% 30.17 in 10.0 mi SSW 3.5 mph - N/A   Clear
5:15 PM 60.8 °F - 17.6 °F 19% 30.16 in 10.0 mi SSW 9.2 mph - N/A   Clear
5:40 PM 62.6 °F - 19.4 °F 19% 30.15 in 10.0 mi SSW 8.1 mph - N/A   Clear
5:55 PM 62.6 °F - 19.4 °F 19% 30.14 in 10.0 mi SSW 11.5 mph - N/A   Clear
6:15 PM 60.8 °F - 19.4 °F 20% 30.13 in 10.0 mi SSW 11.5 mph - N/A   Clear
6:35 PM 60.8 °F - 19.4 °F 20% 30.13 in 10.0 mi SSW 11.5 mph - N/A   Clear
6:55 PM 60.8 °F - 17.6 °F 19% 30.12 in 10.0 mi South 11.5 mph - N/A   Clear
7:15 PM 59.0 °F - 19.4 °F 22% 30.12 in 10.0 mi South 9.2 mph - N/A   Clear
7:35 PM 55.4 °F - 19.4 °F 25% 30.12 in 10.0 mi South 9.2 mph - N/A   Clear
7:55 PM 51.8 °F - 21.2 °F 30% 30.12 in 10.0 mi South 10.4 mph - N/A   Clear
8:15 PM 50.0 °F - 21.2 °F 32% 30.12 in 10.0 mi South 11.5 mph - N/A   Clear
8:35 PM 50.0 °F - 21.2 °F 32% 30.12 in 10.0 mi South 10.4 mph - N/A   Clear
8:55 PM 46.4 °F 41.1 °F 21.2 °F 37% 30.13 in 10.0 mi South 11.5 mph - N/A   Clear
9:15 PM 46.4 °F 41.1 °F 19.4 °F 34% 30.13 in 10.0 mi South 11.5 mph - N/A   Clear
9:35 PM 44.6 °F 39.2 °F 19.4 °F 37% 30.13 in 10.0 mi South 10.4 mph - N/A   Clear
9:55 PM 44.6 °F 39.2 °F 19.4 °F 37% 30.13 in 10.0 mi South 10.4 mph - N/A   Clear
10:20 PM 42.8 °F 37.0 °F 19.4 °F 39% 30.12 in 10.0 mi SSE 10.4 mph - N/A   Clear
10:35 PM 42.8 °F 37.0 °F 19.4 °F 39% 30.13 in 10.0 mi SSE 10.4 mph - N/A   Clear
10:55 PM 41.0 °F 35.2 °F 19.4 °F 42% 30.13 in 10.0 mi South 9.2 mph - N/A   Clear
11:15 PM 41.0 °F 34.7 °F 21.2 °F 45% 30.13 in 10.0 mi South 10.4 mph - N/A   Clear
11:35 PM 41.0 °F 35.2 °F 19.4 °F 42% 30.12 in 10.0 mi SSE 9.2 mph - N/A   Clear
11:55 PM 41.0 °F 35.2 °F 21.2 °F 45% 30.12 in 10.0 mi SSE 9.2 mph - N/A   Clear
12:15 AM 37.4 °F 32.1 °F 21.2 °F 52% 30.11 in 10.0 mi SSE 6.9 mph - N/A   Clear
12:35 AM 39.2 °F 33.6 °F 21.2 °F 49% 30.11 in 10.0 mi SSE 8.1 mph - N/A   Clear
12:55 AM 39.2 °F 33.0 °F 21.2 °F 49% 30.11 in 10.0 mi SSE 9.2 mph - N/A   Clear